TimeMST,TemperatureF,Dew PointF,Humidity,Sea Level PressureIn,VisibilityMPH,Wind Direction,Wind SpeedMPH,Gust SpeedMPH,PrecipitationIn,Events,Conditions,WindDirDegrees,DateUTC
12:53 AM,28.0,10.9,49,29.92,10.0,Calm,Calm,-,N/A,,Clear,0,2012-12-13 07:53:00
1:53 AM,27.0,12.0,53,29.94,10.0,WSW,4.6,-,N/A,,Clear,250,2012-12-13 08:53:00
2:53 AM,27.0,12.0,53,29.97,10.0,WSW,3.5,-,N/A,,Clear,240,2012-12-13 09:53:00
3:53 AM,26.1,12.0,55,29.98,10.0,WNW,4.6,-,N/A,,Clear,290,2012-12-13 10:53:00
4:53 AM,26.1,12.0,55,30.02,10.0,WNW,3.5,-,N/A,,Clear,300,2012-12-13 11:53:00
5:53 AM,24.1,12.0,60,30.06,10.0,Calm,Calm,-,N/A,,Clear,0,2012-12-13 12:53:00
6:53 AM,27.0,12.0,53,30.07,10.0,WNW,8.1,-,N/A,,Clear,290,2012-12-13 13:53:00
7:53 AM,28.9,14.0,54,30.11,10.0,West,8.1,-,N/A,,Clear,270,2012-12-13 14:53:00
8:53 AM,33.1,15.1,48,30.12,10.0,WNW,3.5,-,N/A,,Clear,290,2012-12-13 15:53:00
9:53 AM,37.9,17.1,43,30.14,9.0,West,5.8,-,N/A,,Clear,270,2012-12-13 16:53:00
10:53 AM,46.0,17.1,31,30.10,10.0,WSW,4.6,-,N/A,,Clear,250,2012-12-13 17:53:00
11:53 AM,51.1,17.1,26,30.06,-9999.0,Calm,Calm,-,N/A,,Clear,0,2012-12-13 18:53:00
12:53 PM,53.1,18.0,25,30.03,-9999.0,Variable,3.5,-,N/A,,Clear,0,2012-12-13 19:53:00
1:53 PM,54.0,18.0,24,30.02,-9999.0,ESE,6.9,-,N/A,,Clear,120,2012-12-13 20:53:00
2:53 PM,54.0,18.0,24,30.00,-9999.0,SSE,9.2,-,N/A,,Clear,150,2012-12-13 21:53:00
4:53 PM,37.9,15.1,39,30.04,10.0,ESE,4.6,-,N/A,,Clear,120,2012-12-13 23:53:00
5:53 PM,35.6,15.8,44,29.97,10.0,SE,6.9,-,N/A,,Clear,140,2012-12-14 00:53:00
6:53 PM,30.9,15.1,52,30.06,8.0,SSE,8.1,-,N/A,,Clear,160,2012-12-14 01:53:00
7:53 PM,28.9,14.0,54,30.05,10.0,SE,9.2,-,N/A,,Clear,140,2012-12-14 02:53:00
8:53 PM,28.0,14.0,56,30.04,10.0,SE,6.9,-,N/A,,Clear,130,2012-12-14 03:53:00
9:53 PM,28.9,15.1,56,30.02,10.0,SE,5.8,-,N/A,,Clear,140,2012-12-14 04:53:00
10:53 PM,30.2,15.8,55,29.95,10.0,SE,3.5,-,N/A,,Clear,140,2012-12-14 05:53:00
11:53 PM,24.1,14.0,65,29.97,10.0,SSE,6.9,-,N/A,,Clear,150,2012-12-14 06:53:00